{"data":{"norad_id":57791,"epoch":"2026-05-24T23:21:42.242976Z","epoch_age_seconds":76931,"freshness":"FRESH","line1":"1 57791U 23134W   26144.97340559  .00000821  00000+0  39356-4 0  9991","line2":"2 57791  43.0035 123.6520 0001035 270.5716  89.5017 15.27576894151171","mean_motion":15.27576894,"eccentricity":0.0001035,"inclination_deg":43.0035,"raan_deg":123.652,"arg_perigee_deg":270.5716,"mean_anomaly_deg":89.5017,"bstar":3.9356e-5,"rev_number":15117,"period_min":94.266940384868,"perigee_km":482.34826281325,"apogee_km":483.76853026033,"semimajor_km":6861.1953965368,"source":"CELESTRAK","updated_at":"2026-05-25T13:38:18.408043Z"}}